SBI601 UIII-UIUU

Flight info

Callsign SBI601
Flight time 0h 30m
Altitude 23000
Route GOLOS4D GOLOS A810 KUDAR A806 OSTUN OSTUN5P
Aircraft A320/M-SDE3FGHIRWY/LB1

Departure

Time 2026-05-05 07:05
Airport Irkutsk International Airport (UIII)

Arrival

Time 2026-05-05 07:36
Airport Baikal International Airport (UIUU)
Time Latitude Longitude Altitude Speed Heading
2026-05-05 06:52 52.27119 104.36792 1585 ft 0 kts 199°
2026-05-05 07:00 52.27067 104.36801 1585 ft 13 kts 127°
2026-05-05 07:00 52.27034 104.36937 1585 ft 12 kts 110°
2026-05-05 07:01 52.27006 104.37059 1585 ft 11 kts 110°
2026-05-05 07:01 52.26994 104.37224 1585 ft 19 kts 80°
2026-05-05 07:01 52.26961 104.37435 1587 ft 19 kts 113°
2026-05-05 07:01 52.26910 104.37624 1590 ft 19 kts 113°
2026-05-05 07:02 52.26810 104.38006 1605 ft 52 kts 112°
2026-05-05 07:02 52.26672 104.38525 1611 ft 48 kts 113°
2026-05-05 07:02 52.26548 104.38988 1641 ft 40 kts 113°
2026-05-05 07:02 52.26438 104.39410 1642 ft 40 kts 115°
2026-05-05 07:03 52.26329 104.39817 1652 ft 38 kts 112°
2026-05-05 07:03 52.26227 104.40200 1663 ft 36 kts 113°
2026-05-05 07:03 52.26130 104.40568 1677 ft 35 kts 113°
2026-05-05 07:03 52.26034 104.40923 1677 ft 34 kts 113°
2026-05-05 07:04 52.26042 104.41193 1691 ft 20 kts 29°
2026-05-05 07:04 52.26152 104.41274 1697 ft 17 kts 24°
2026-05-05 07:04 52.26251 104.41206 1692 ft 20 kts 294°
2026-05-05 07:04 52.26346 104.40856 1682 ft 65 kts 293°
2026-05-05 07:05 52.26631 104.39792 1642 ft 138 kts 293°
2026-05-05 07:05 52.27058 104.38154 1993 ft 164 kts 298°
2026-05-05 07:05 52.27517 104.36423 2930 ft 166 kts 296°
2026-05-05 07:05 52.28007 104.34564 3390 ft 194 kts 295°
2026-05-05 07:06 52.28581 104.32410 3925 ft 219 kts 295°
2026-05-05 07:06 52.29198 104.30117 4620 ft 234 kts 297°
2026-05-05 07:06 52.29542 104.29107 4952 ft 240 kts 308°
2026-05-05 07:06 52.30898 104.27575 5914 ft 247 kts 343°
2026-05-05 07:07 52.32636 104.27558 6954 ft 256 kts
2026-05-05 07:07 52.34362 104.28323 7964 ft 260 kts 14°
2026-05-05 07:07 52.36060 104.29292 8937 ft 265 kts 16°
2026-05-05 07:07 52.37815 104.30283 9947 ft 268 kts 15°
2026-05-05 07:08 52.39625 104.31223 10611 ft 283 kts 14°
2026-05-05 07:08 52.41585 104.32213 11042 ft 304 kts 19°
2026-05-05 07:08 52.43400 104.34134 11791 ft 319 kts 41°
2026-05-05 07:08 52.44694 104.37158 12593 ft 332 kts 64°
2026-05-05 07:09 52.45135 104.40913 13459 ft 343 kts 90°
2026-05-05 07:09 52.44747 104.44816 14299 ft 349 kts 100°
2026-05-05 07:09 52.44240 104.48738 15018 ft 354 kts 99°
2026-05-05 07:09 52.43715 104.52705 15759 ft 358 kts 100°
2026-05-05 07:10 52.43111 104.56697 16433 ft 365 kts 104°
2026-05-05 07:10 52.42354 104.60652 17122 ft 370 kts 106°
2026-05-05 07:10 52.41580 104.64691 17840 ft 374 kts 105°
2026-05-05 07:10 52.40794 104.68796 18490 ft 380 kts 105°
2026-05-05 07:11 52.40000 104.72956 19093 ft 384 kts 105°
2026-05-05 07:11 52.39194 104.77164 19700 ft 389 kts 105°
2026-05-05 07:11 52.38654 104.79978 20100 ft 392 kts 105°
2026-05-05 07:11 52.37833 104.84255 20713 ft 396 kts 105°
2026-05-05 07:12 52.37002 104.88582 21300 ft 401 kts 105°
2026-05-05 07:12 52.36161 104.92958 21884 ft 405 kts 105°
2026-05-05 07:12 52.35304 104.97390 22468 ft 410 kts 105°
2026-05-05 07:12 52.34436 105.01867 23006 ft 415 kts 105°
2026-05-05 07:13 52.33560 105.06383 23121 ft 414 kts 105°
2026-05-05 07:13 52.32689 105.10854 23128 ft 411 kts 105°
2026-05-05 07:13 52.31830 105.15240 23127 ft 410 kts 105°
2026-05-05 07:13 52.30958 105.19686 23127 ft 410 kts 105°
2026-05-05 07:14 52.30086 105.24129 23118 ft 410 kts 105°
2026-05-05 07:14 52.29215 105.28563 23121 ft 409 kts 105°
2026-05-05 07:14 52.28509 105.33050 23123 ft 407 kts 96°
2026-05-05 07:14 52.28258 105.37632 23123 ft 403 kts 86°
2026-05-05 07:15 52.28345 105.42198 23113 ft 402 kts 84°
2026-05-05 07:15 52.28445 105.46718 23114 ft 402 kts 84°
2026-05-05 07:15 52.28539 105.51287 23134 ft 403 kts 84°
2026-05-05 07:15 52.28628 105.55861 23120 ft 403 kts 84°
2026-05-05 07:16 52.28716 105.60444 23117 ft 404 kts 84°
2026-05-05 07:16 52.28801 105.65030 23105 ft 404 kts 84°
2026-05-05 07:16 52.28884 105.69623 23106 ft 404 kts 85°
2026-05-05 07:16 52.28964 105.74206 23103 ft 404 kts 85°
2026-05-05 07:17 52.29043 105.78805 23101 ft 404 kts 85°
2026-05-05 07:17 52.29124 105.83403 23097 ft 405 kts 85°
2026-05-05 07:17 52.29205 105.87994 23098 ft 405 kts 85°
2026-05-05 07:17 52.29284 105.92604 23098 ft 405 kts 85°
2026-05-05 07:18 52.29358 105.97194 23096 ft 405 kts 85°
2026-05-05 07:18 52.29429 106.01792 23097 ft 405 kts 85°
2026-05-05 07:18 52.29496 106.06329 23104 ft 405 kts 85°
2026-05-05 07:18 52.29564 106.10935 23094 ft 405 kts 85°
2026-05-05 07:19 52.29631 106.15545 23090 ft 406 kts 85°
2026-05-05 07:19 52.29695 106.20163 23087 ft 406 kts 85°
2026-05-05 07:19 52.29759 106.24789 23086 ft 406 kts 85°
2026-05-05 07:19 52.29821 106.29367 22954 ft 402 kts 85°
2026-05-05 07:20 52.29877 106.33885 22672 ft 394 kts 85°
2026-05-05 07:20 52.29930 106.38340 22390 ft 390 kts 85°
2026-05-05 07:20 52.29856 106.42765 22111 ft 390 kts 94°
2026-05-05 07:20 52.29292 106.47103 21831 ft 390 kts 105°
2026-05-05 07:21 52.28246 106.51185 21557 ft 390 kts 117°
2026-05-05 07:21 52.26767 106.54876 21303 ft 389 kts 128°
2026-05-05 07:21 52.25056 106.58287 21032 ft 387 kts 129°
2026-05-05 07:21 52.23354 106.61666 20751 ft 384 kts 129°
2026-05-05 07:22 52.21661 106.65012 20438 ft 379 kts 129°
2026-05-05 07:22 52.20007 106.68273 19962 ft 377 kts 129°
2026-05-05 07:22 52.18317 106.71602 19467 ft 375 kts 128°
2026-05-05 07:22 52.16676 106.74830 18989 ft 373 kts 128°
2026-05-05 07:23 52.15025 106.78073 18495 ft 371 kts 128°
2026-05-05 07:23 52.13377 106.81301 17983 ft 369 kts 128°
2026-05-05 07:23 52.11745 106.84495 17509 ft 365 kts 128°
2026-05-05 07:23 52.10126 106.87655 17054 ft 361 kts 128°
2026-05-05 07:24 52.08516 106.90762 16623 ft 357 kts 128°
2026-05-05 07:24 52.06913 106.93832 16173 ft 355 kts 128°
2026-05-05 07:24 52.05326 106.96883 15741 ft 352 kts 126°
2026-05-05 07:24 52.04020 107.00198 15320 ft 346 kts 114°
2026-05-05 07:25 52.03167 107.03801 14898 ft 339 kts 101°
2026-05-05 07:25 52.02713 107.07516 14482 ft 334 kts 96°
2026-05-05 07:25 52.02316 107.11199 14061 ft 332 kts 97°
2026-05-05 07:25 52.01915 107.14880 13622 ft 330 kts 97°
2026-05-05 07:26 52.01516 107.18531 13201 ft 327 kts 96°
2026-05-05 07:26 52.01119 107.22146 12783 ft 324 kts 95°
2026-05-05 07:26 52.00722 107.25736 12376 ft 322 kts 96°
2026-05-05 07:26 52.00328 107.29302 11951 ft 320 kts 97°
2026-05-05 07:27 51.99936 107.32838 11536 ft 318 kts 97°
2026-05-05 07:27 51.99548 107.36338 11123 ft 316 kts 96°
2026-05-05 07:27 51.99162 107.39799 10714 ft 314 kts 96°
2026-05-05 07:27 51.98772 107.43283 10297 ft 313 kts 98°
2026-05-05 07:28 51.98386 107.46705 10120 ft 303 kts 97°
2026-05-05 07:28 51.98008 107.50036 9981 ft 297 kts 97°
2026-05-05 07:28 51.97637 107.53297 9665 ft 293 kts 96°
2026-05-05 07:28 51.97269 107.56538 9261 ft 292 kts 96°
2026-05-05 07:29 51.96902 107.59772 8870 ft 291 kts 98°
2026-05-05 07:29 51.96537 107.62976 8488 ft 289 kts 97°
2026-05-05 07:29 51.96173 107.66176 8100 ft 287 kts 96°
2026-05-05 07:29 51.95766 107.69330 7716 ft 286 kts 105°
2026-05-05 07:30 51.94872 107.72202 7340 ft 287 kts 126°
2026-05-05 07:30 51.91753 107.75801 6176 ft 276 kts 166°
2026-05-05 07:30 51.89906 107.76176 5925 ft 259 kts 187°
2026-05-05 07:31 51.88203 107.75691 5825 ft 241 kts 204°
2026-05-05 07:31 51.86736 107.74561 5656 ft 227 kts 220°
2026-05-05 07:31 51.85565 107.72960 5438 ft 215 kts 236°
2026-05-05 07:31 51.84717 107.71038 5180 ft 206 kts 250°
2026-05-05 07:32 51.84207 107.68966 4927 ft 192 kts 262°
2026-05-05 07:32 51.83936 107.66942 4624 ft 176 kts 265°
2026-05-05 07:32 51.83700 107.65105 4364 ft 163 kts 265°
2026-05-05 07:32 51.83477 107.63374 4126 ft 150 kts 266°
2026-05-05 07:33 51.83276 107.61817 3915 ft 135 kts 266°
2026-05-05 07:33 51.83097 107.60356 3648 ft 129 kts 268°
2026-05-05 07:33 51.82933 107.58950 3500 ft 126 kts 269°
2026-05-05 07:33 51.82765 107.57556 3356 ft 127 kts 267°
2026-05-05 07:34 51.82567 107.56166 3177 ft 126 kts 266°
2026-05-05 07:34 51.82377 107.54788 2949 ft 126 kts 267°
2026-05-05 07:34 51.82206 107.53401 2705 ft 127 kts 266°
2026-05-05 07:34 51.82020 107.51992 2501 ft 130 kts 263°
2026-05-05 07:35 51.81820 107.50558 2329 ft 131 kts 263°
2026-05-05 07:35 51.81632 107.49118 2084 ft 130 kts 263°
2026-05-05 07:35 51.81447 107.47695 1882 ft 131 kts 262°
2026-05-05 07:35 51.81269 107.46262 1714 ft 129 kts 261°
2026-05-05 07:36 51.81106 107.44980 1686 ft 97 kts 258°
2026-05-05 07:36 51.81010 107.44266 1689 ft 12 kts 250°
2026-05-05 07:36 51.80940 107.44229 1684 ft 10 kts 175°
2026-05-05 07:36 51.80872 107.44251 1692 ft 9 kts 167°
2026-05-05 07:37 51.80818 107.44271 1686 ft 9 kts 168°